Location: Klein M�hlingen
(51.9472°N, 11.7453°E)
Time: 03:32:07
(UTC+00:00)

Cosmos 1076 Rocket - Pass Details

Date: 09 April 2020
Orbit: 590 x 612 km, 82.5° (Epoch: 04 June)

Event Time Altitude Azimuth Distance (km) Brightness Sun altitude
Rises 19:37:19 0° 351° (N) 2,851 7.6 -14.3°
Reaches altitude 10° 19:39:33 10° 354° (N) 1,947 6.7 -14.6°
Maximum altitude 19:43:50 68° 77° (ENE) 652 3.5 -15.1°
Enters shadow 19:46:25 23° 156° (SSE) 1,282 4.7 -15.5°
